{"data":{"norad_id":62013,"intl_designator":"2024-213F","name":"STARLINK-11377 [DTC]","alt_names":[],"object_type":"PAYLOAD","status":"ACTIVE","operator":null,"country":"US","launch_date":"2024-11-18","launch_site_code":"AFWTR","launch_vehicle":null,"mission":null,"orbit_class":"UNKNOWN","rcs_meters":null,"size_class":null,"mass_kg":null,"dimensions":null,"purposes":["comms"],"wikipedia_slug":null,"has_3d_model":false,"image_url":null,"decayed_at":null,"tle_current":{"epoch":"2026-05-25T01:45:26.680608Z","epoch_age_seconds":71902,"freshness":"FRESH","line1":"1 62013U 24213F   26145.07322547  .00200641  00000+0  16170-2 0  9991","line2":"2 62013  53.1577  24.6082 0000661  91.7395 268.3699 15.69772428 86919","mean_motion":15.69772428,"eccentricity":6.61e-5,"inclination_deg":53.1577,"raan_deg":24.6082,"arg_perigee_deg":91.7395,"mean_anomaly_deg":268.3699,"bstar":0.001617,"rev_number":8691,"period_min":91.733041956576,"perigee_km":359.10275031454,"apogee_km":359.99347228625,"semimajor_km":6737.6851113004,"source":"CELESTRAK","updated_at":"2026-05-25T13:38:19.519375Z"}}}